Wind_Speed
16 15 14 13 12 11 10 10 10 9 9 10 10 9 9 9 7 7 8 9 10 10 9 10 11 10 11 11 12 12 12 12 12 13 13 13 13 13 13 13 13 13 13 13
16 14 13 14 13 12 11 11 10 9 9 9 9 10 9 8 8 8 9 9 10 9 9 9 9 10 11 11 11 12 12 13 12 12 13 13 13 13 13 13 13 13 13 13
14 13 14 14 13 12 11 10 9 8 9 11 11 11 10 8 8 9 9 8 8 10 10 10 10 9 10 10 11 11 12 12 12 12 13 13 14 14 14 14 14 14 14 14
15 15 15 14 13 13 12 10 10 10 10 11 12 11 11 10 10 10 8 6 8 10 10 10 10 10 10 10 11 12 12 13 13 13 14 14 15 15 15 15 15 15 15 15
16 15 15 14 13 12 12 11 12 12 12 12 13 14 13 11 11 9 8 8 8 10 10 10 11 11 11 11 12 12 12 14 14 14 14 15 16 16 16 16 16 16 16 16
16 16 15 15 14 14 13 13 13 14 14 14 14 15 14 12 11 10 9 10 10 10 10 11 12 13 13 13 12 12 13 14 14 15 15 16 16 17 16 16 17 17 17 17
17 17 16 16 17 16 15 16 16 17 16 15 14 15 14 12 12 10 10 11 11 12 12 12 13 14 14 14 13 13 14 14 15 15 16 16 17 17 17 18 17 17 17 17
18 17 16 17 18 18 17 18 17 17 16 14 14 15 14 12 12 10 11 12 13 12 12 12 14 14 14 14 14 14 14 14 15 15 16 16 17 18 18 18 17 17 17 18
19 17 17 16 16 18 18 18 17 18 17 17 17 17 14 12 11 10 12 12 13 13 12 13 14 14 14 14 14 14 14 14 15 16 16 17 17 18 18 18 18 18 19 18
19 19 17 17 16 17 18 18 18 19 19 18 18 16 13 12 10 11 12 12 12 12 13 14 14 15 14 14 13 14 14 15 16 16 17 17 17 17 18 18 19 19 18 18
20 21 19 19 18 16 17 18 19 19 19 18 17 16 14 14 13 13 12 13 13 13 14 15 15 15 14 13 13 14 16 16 16 17 17 18 18 18 18 18 18 18 18 18
22 21 21 19 18 18 18 19 18 18 18 19 18 16 14 15 14 14 13 13 13 14 15 15 14 14 13 13 14 15 16 17 18 18 18 17 17 17 17 18 17 17 17 17
24 23 22 21 20 20 20 19 18 18 18 18 18 16 15 15 16 15 14 14 14 15 16 16 15 15 15 15 14 15 16 17 18 18 17 17 17 17 17 16 16 16 16 15
25 25 24 23 21 20 21 20 19 19 18 18 17 16 15 15 15 15 14 14 15 15 16 16 16 16 15 15 15 15 16 17 17 17 17 17 17 17 16 16 16 16 16 15
25 26 25 24 22 22 23 22 21 20 19 19 17 16 16 15 16 16 16 16 16 16 16 16 16 17 16 15 16 16 16 16 16 16 17 17 17 17 16 16 16 16 16 16
27 26 25 24 23 23 25 24 23 21 20 20 19 18 17 16 16 16 16 16 17 17 17 17 17 17 17 16 16 15 16 16 16 17 17 17 17 16 16 16 17 16 16 16
27 27 26 25 24 24 24 23 23 22 21 20 19 18 17 16 17 16 17 17 16 16 17 17 17 17 17 17 16 16 16 17 17 17 17 16 16 16 16 17 16 16 16 16
27 27 27 26 25 25 24 22 21 21 20 20 20 19 18 18 18 18 17 17 17 17 18 17 17 17 17 17 16 17 17 17 18 18 17 17 16 16 16 17 17 16 16 16
27 26 28 27 26 25 23 22 22 21 21 21 20 19 19 19 19 18 18 17 17 18 18 18 18 18 18 17 17 17 17 18 19 18 17 17 16 16 17 17 17 17 17 17
27 27 26 27 27 27 24 24 23 23 22 22 21 20 20 20 20 18 19 19 19 19 19 19 19 19 18 18 17 18 18 18 19 18 17 16 16 16 17 17 18 18 17 16
25 26 26 26 28 27 25 25 24 24 22 22 21 21 21 21 20 19 19 20 20 20 19 19 18 18 18 17 17 18 18 18 18 17 17 17 17 17 17 18 18 18 17 16
25 27 26 26 27 27 27 25 25 24 24 23 22 21 21 21 20 20 20 20 20 20 19 19 19 18 17 17 18 18 18 18 18 18 18 18 18 18 17 17 17 16 16 16
26 26 27 27 27 25 26 26 25 25 24 23 22 21 20 20 20 20 20 20 20 19 19 19 19 18 18 18 18 18 18 18 18 18 18 18 17 17 17 17 16 15 15 15
25 26 26 27 27 26 25 24 24 24 25 24 23 21 21 20 20 20 21 20 19 19 19 19 19 19 18 19 19 19 18 17 17 17 17 16 16 16 17 16 16 16 15 15
25 25 26 26 28 27 26 25 23 24 24 23 23 22 22 22 21 21 21 20 20 20 19 19 19 19 19 18 18 18 18 17 17 17 17 17 17 17 18 17 17 17 16 16
27 27 26 26 27 27 27 26 26 24 24 24 24 23 23 23 22 22 22 21 20 20 19 19 19 19 19 19 19 19 19 18 19 19 18 18 18 18 18 18 17 16 16 16
Wind_Direction
214 215 214 219 225 230 232 233 236 236 240 251 256 263 267 270 271 280 294 307 310 314 315 314 313 308 310 313 313 310 306 302 302 302 305 306 308 309 310 306 304 301 299 299
214 212 211 217 222 227 230 230 230 233 235 246 254 260 260 272 278 278 288 299 307 313 318 321 311 305 308 312 310 307 304 300 299 300 303 305 305 305 305 304 303 301 301 300
216 213 216 218 218 224 227 230 235 238 230 237 248 251 258 262 274 276 280 285 304 318 317 319 319 314 312 311 311 311 309 303 301 302 304 307 308 306 305 304 303 304 305 302
213 214 218 216 215 223 228 233 241 246 242 238 251 256 256 263 270 280 285 287 301 310 313 321 323 317 315 314 314 314 311 306 303 303 303 306 306 303 302 303 303 304 303 300
212 212 214 215 220 229 232 234 243 248 251 248 249 257 261 266 274 285 290 289 291 303 310 316 315 315 314 313 315 316 313 308 305 305 306 307 305 303 301 301 303 304 303 301
214 215 217 220 223 229 231 234 239 243 247 250 250 257 261 263 273 273 276 285 288 291 302 309 310 312 313 312 311 313 315 312 308 307 306 307 305 304 304 303 304 304 304 302
215 216 218 220 223 227 230 232 236 239 244 253 255 256 260 263 267 268 273 282 283 287 294 299 302 308 311 309 309 311 313 314 310 307 306 306 304 303 303 302 302 302 303 301
219 217 218 223 227 230 232 236 238 243 249 253 256 258 260 268 270 269 275 280 279 281 289 295 300 303 303 303 303 307 311 313 311 308 307 304 302 302 302 302 301 299 299 299
222 221 222 227 228 232 232 234 241 245 250 256 256 257 260 264 270 272 277 280 280 283 288 294 299 299 297 296 298 302 307 310 312 312 312 310 306 303 303 302 300 298 298 297
225 225 225 229 230 233 233 233 236 243 250 259 260 261 264 266 274 275 278 285 284 288 295 298 297 298 295 293 298 302 305 310 312 313 313 311 310 306 303 302 300 300 299 298
230 230 230 230 231 233 234 234 237 243 250 256 259 260 267 269 274 279 286 289 288 288 293 300 297 298 297 295 297 300 306 311 314 315 314 313 310 308 306 305 304 303 300 300
232 233 232 232 231 232 234 234 239 248 254 258 260 259 263 266 272 275 281 288 289 295 298 298 298 296 298 296 295 298 303 308 312 315 315 315 313 309 308 306 305 305 305 303
232 235 233 233 232 230 235 238 242 249 255 258 260 264 265 270 271 274 280 285 289 293 299 298 298 297 298 298 297 299 303 306 310 314 315 316 316 313 312 312 313 312 311 309
231 234 235 235 236 236 237 239 241 247 252 257 260 264 267 271 272 273 279 284 286 290 294 296 299 298 298 299 300 303 306 308 311 313 313 315 317 318 316 315 315 314 313 311
232 234 237 238 233 235 236 238 241 246 251 257 261 264 266 270 270 272 275 279 283 287 288 292 295 296 296 297 299 301 306 308 310 312 313 314 315 316 316 315 314 312 312 310
233 233 235 234 232 234 235 237 242 246 251 255 260 261 265 269 271 273 274 276 280 285 289 291 294 294 294 296 298 300 303 306 309 310 312 312 313 314 314 314 313 311 310 310
232 232 232 232 232 231 233 239 243 246 250 255 260 262 262 266 269 272 274 276 281 284 288 291 292 293 292 296 297 302 304 307 308 310 310 311 312 314 314 313 312 309 309 310
236 235 235 233 233 234 237 239 242 247 250 254 258 260 259 261 264 268 272 274 279 283 286 289 289 290 291 294 297 301 303 307 308 308 308 309 310 311 313 315 313 309 306 308
238 236 236 236 237 240 239 241 244 248 250 253 256 257 258 259 260 264 266 270 275 282 285 285 285 287 291 293 296 300 303 304 306 305 306 307 307 308 310 312 311 307 306 305
238 237 236 236 238 241 242 244 246 249 252 251 251 254 257 257 257 261 264 268 273 278 281 284 286 287 289 291 295 300 301 302 304 303 304 306 306 306 308 309 310 307 306 306
235 235 236 236 238 241 242 245 247 250 252 254 255 257 257 257 258 260 262 267 272 276 278 280 283 286 287 290 294 298 301 301 302 304 305 303 303 305 306 308 310 309 305 305
236 236 238 237 238 240 242 246 248 252 253 255 255 255 256 254 256 258 262 264 269 273 275 278 281 283 285 288 292 295 297 299 299 300 304 304 304 306 306 307 309 308 306 305
233 236 239 239 240 242 243 246 248 251 253 253 252 254 253 251 254 258 262 266 269 271 275 278 279 281 284 287 289 293 295 295 296 299 302 303 304 304 307 309 309 308 308 308
234 236 238 240 240 241 243 244 246 248 253 254 254 253 254 253 255 260 263 264 267 272 274 275 279 280 282 285 288 290 293 293 296 298 300 301 302 304 307 307 307 307 307 309
237 239 241 243 241 242 244 247 249 249 251 252 253 253 252 254 256 258 260 264 268 271 274 275 278 279 279 281 283 285 287 290 293 294 297 297 299 302 304 306 307 307 306 309
237 239 241 244 244 245 247 249 251 250 249 249 250 249 249 252 256 258 261 262 266 270 273 274 275 277 279 281 282 283 285 286 289 292 292 294 298 301 302 304 304 304 305 308
Height
5843 5846 5848 5851 5853 5855 5856 5856 5857 5858 5858 5858 5858 5858 5859 5858 5858 5858 5858 5857 5856 5855 5854 5853 5852 5850 5849 5848 5847 5846 5845 5843 5842 5840 5839 5837 5836 5834 5832 5830 5828 5827 5825 5823
5841 5843 5847 5848 5849 5851 5852 5854 5855 5856 5856 5856 5856 5856 5856 5856 5856 5856 5856 5855 5854 5853 5852 5850 5849 5848 5847 5846 5844 5843 5842 5840 5839 5838 5836 5834 5833 5831 5829 5827 5825 5823 5821 5820
5838 5842 5842 5844 5846 5848 5850 5851 5852 5853 5854 5854 5854 5854 5854 5854 5854 5853 5853 5853 5852 5851 5850 5848 5847 5845 5844 5843 5842 5840 5839 5837 5836 5834 5833 5831 5829 5828 5826 5824 5822 5820 5818 5816
5834 5837 5839 5841 5843 5845 5847 5849 5849 5850 5850 5851 5852 5851 5851 5851 5851 5850 5850 5850 5849 5848 5847 5846 5845 5844 5842 5841 5839 5837 5836 5834 5833 5831 5829 5827 5826 5824 5822 5820 5818 5816 5814 5812
5831 5834 5836 5838 5840 5842 5844 5845 5846 5847 5847 5848 5848 5848 5848 5848 5848 5848 5847 5847 5846 5846 5845 5844 5842 5841 5840 5838 5836 5834 5832 5831 5829 5827 5825 5823 5822 5820 5818 5816 5813 5811 5809 5807
5828 5830 5832 5835 5837 5839 5840 5842 5843 5843 5844 5844 5844 5844 5845 5844 5845 5845 5845 5844 5843 5843 5842 5841 5840 5838 5837 5835 5833 5831 5829 5827 5825 5823 5821 5819 5817 5815 5813 5811 5809 5807 5805 5803
5823 5826 5829 5831 5833 5835 5836 5838 5839 5839 5839 5840 5841 5840 5841 5841 5841 5841 5841 5841 5840 5839 5838 5838 5837 5835 5833 5832 5830 5828 5826 5824 5821 5819 5817 5814 5813 5811 5808 5806 5804 5802 5799 5797
5819 5823 5825 5826 5828 5830 5832 5834 5835 5835 5836 5837 5837 5836 5838 5838 5838 5837 5837 5837 5837 5836 5835 5834 5833 5832 5830 5828 5826 5825 5823 5820 5818 5815 5813 5810 5808 5806 5804 5801 5799 5797 5794 5792
5815 5819 5821 5823 5824 5826 5828 5829 5831 5832 5832 5833 5833 5833 5834 5834 5834 5833 5833 5832 5832 5832 5831 5829 5829 5828 5826 5824 5823 5821 5819 5817 5814 5811 5809 5806 5803 5801 5799 5796 5794 5791 5789 5787
5811 5814 5817 5819 5820 5822 5824 5826 5827 5827 5827 5828 5828 5828 5830 5830 5830 5830 5829 5829 5828 5828 5826 5825 5825 5824 5822 5820 5819 5817 5816 5813 5811 5808 5805 5802 5799 5796 5794 5791 5788 5786 5784 5781
5806 5809 5812 5814 5815 5817 5819 5821 5822 5823 5823 5824 5824 5827 5826 5826 5826 5826 5826 5825 5825 5824 5823 5822 5821 5819 5817 5816 5814 5813 5811 5809 5806 5804 5800 5797 5794 5791 5788 5786 5783 5781 5778 5776
5800 5803 5806 5809 5811 5812 5814 5816 5817 5819 5819 5820 5820 5824 5822 5822 5822 5821 5821 5821 5821 5820 5819 5818 5817 5815 5814 5812 5811 5809 5807 5804 5802 5799 5796 5793 5790 5787 5784 5781 5779 5776 5773 5771
5795 5798 5801 5803 5807 5808 5809 5811 5813 5814 5815 5815 5816 5820 5818 5818 5818 5818 5818 5817 5817 5816 5815 5814 5812 5811 5810 5808 5806 5805 5803 5800 5798 5795 5792 5789 5786 5783 5780 5777 5774 5771 5769 5766
5791 5793 5796 5799 5800 5802 5804 5806 5808 5809 5810 5810 5812 5813 5814 5814 5813 5814 5814 5814 5813 5812 5811 5810 5809 5807 5806 5804 5802 5800 5798 5796 5793 5791 5788 5785 5782 5779 5776 5773 5770 5767 5765 5762
5785 5787 5790 5793 5795 5797 5799 5801 5803 5804 5805 5806 5807 5808 5809 5809 5809 5809 5810 5809 5809 5808 5807 5806 5804 5803 5801 5799 5798 5796 5794 5792 5789 5786 5783 5780 5778 5775 5772 5769 5766 5764 5761 5759
5778 5781 5784 5787 5789 5791 5793 5795 5797 5799 5800 5801 5802 5803 5804 5804 5804 5804 5804 5804 5804 5803 5802 5801 5800 5798 5797 5795 5793 5792 5790 5787 5785 5782 5779 5776 5773 5771 5768 5765 5763 5760 5757 5755
5772 5775 5778 5781 5783 5785 5787 5790 5791 5793 5794 5796 5796 5798 5798 5798 5799 5799 5799 5799 5799 5799 5798 5796 5795 5794 5792 5791 5789 5787 5785 5782 5780 5777 5775 5772 5769 5767 5764 5761 5759 5756 5753 5751
5765 5769 5771 5774 5778 5779 5784 5784 5785 5787 5788 5789 5790 5792 5792 5793 5793 5794 5794 5794 5794 5793 5793 5792 5791 5789 5788 5786 5784 5782 5780 5778 5775 5773 5770 5768 5765 5763 5760 5757 5754 5752 5749 5747
5759 5762 5765 5768 5770 5773 5776 5778 5779 5781 5782 5783 5785 5786 5787 5787 5788 5788 5788 5788 5788 5788 5787 5786 5786 5784 5782 5781 5779 5777 5775 5773 5770 5768 5765 5763 5760 5758 5756 5753 5750 5748 5745 5743
5753 5756 5759 5761 5764 5766 5771 5772 5773 5775 5776 5777 5779 5780 5781 5782 5782 5783 5783 5783 5783 5783 5782 5781 5780 5778 5777 5776 5774 5772 5770 5768 5766 5763 5760 5758 5756 5754 5751 5749 5746 5744 5741 5739
5746 5749 5751 5754 5757 5760 5763 5765 5768 5770 5771 5772 5773 5774 5775 5776 5777 5778 5777 5777 5777 5777 5776 5775 5774 5772 5771 5770 5769 5767 5765 5763 5761 5759 5756 5753 5751 5749 5747 5744 5742 5739 5737 5735
5740 5743 5745 5748 5750 5755 5756 5758 5761 5762 5763 5764 5766 5767 5768 5769 5770 5771 5771 5771 5772 5771 5770 5769 5768 5767 5766 5765 5763 5761 5760 5758 5756 5754 5751 5749 5746 5744 5741 5739 5737 5735 5732 5731
5733 5737 5739 5742 5746 5748 5749 5751 5753 5755 5757 5758 5759 5760 5762 5763 5764 5765 5765 5765 5765 5765 5764 5763 5762 5761 5760 5759 5757 5756 5755 5753 5751 5749 5747 5744 5742 5739 5737 5735 5733 5731 5729 5727
5727 5730 5732 5735 5738 5740 5742 5744 5745 5747 5750 5751 5752 5753 5755 5756 5757 5758 5759 5759 5759 5759 5758 5757 5756 5755 5754 5753 5752 5750 5749 5747 5746 5744 5742 5740 5737 5735 5733 5731 5729 5727 5725 5723
5720 5723 5725 5727 5730 5733 5735 5736 5738 5740 5742 5743 5745 5746 5748 5749 5750 5751 5752 5752 5753 5752 5752 5751 5750 5749 5748 5747 5746 5745 5743 5742 5740 5739 5737 5735 5733 5731 5729 5727 5725 5723 5721 5719
5714 5716 5718 5720 5723 5726 5728 5729 5731 5732 5734 5736 5738 5739 5740 5742 5743 5744 5745 5745 5746 5746 5745 5745 5744 5743 5742 5741 5740 5739 5737 5736 5735 5733 5732 5730 5728 5727 5725 5723 5721 5719 5717 5715